ARIANE 5 R/B

基本信息
目录编号:
43274
目录名称:
ARIANE 5 R/B
国际标识:
2018-033D
轨道中心:
EARTH
物体状态:
在轨
发射日期:
2018-04-05 UTC
国别:
法国 (FR)
轨道信息
数据来源: 国际轨道数据
星历时间: 2026-07-13T20:17:24+0800
半长轴: 22255.221km
偏心率: 0.7028866
轨道倾角: 2.681°
近地点辐角: 15.637°
升交点赤经: 56.619°
平近点角: 358.205°
近地点: 234.187km
远地点: 31519.981km
周期: 550.690分钟
每日圈数: 2.614899
详细信息
发射场:
FRGUI
轨道高度:
LEO
数据来源:
AOE Integration Group
参考系:
TEME
时间系统:
UTC
历元类型:
SGP4
2D轨道图
3D轨道图
轨道高度分析图
轨道倾角分析图
轨道综合分析图
查看轨道综合分析图